"Pseudo-MPEC" for C45ZFV1

Created 2026 Mar 9 22:35:14 UT using Find_Orb

Click here for an explanation of pseudo-MPECs

 
 Astrometry: 
     C45ZFV1*1C2026 03 08.36745511 29 29.850-01 54 44.53   ~389K 18.87GVNEOCP703
     C45ZFV1 1C2026 03 08.36968311 29 37.496-01 54 10.30   ~389K 19.35GVNEOCP703
     C45ZFV1 1C2026 03 08.37191011 29 45.067-01 53 32.39   ~389K 18.76GVNEOCP703
     C45ZFV1 1C2026 03 08.37413911 29 52.624-01 52 57.04   ~389K 19.51GVNEOCP703
     C45ZFV1 1C2026 03 08.46784711 35 13.524-01 28 09.30   ~38BZ 18.78GVNEOCPI52
     C45ZFV1 1C2026 03 08.46804011 35 14.132-01 28 05.41   ~38BZ 20.45GVNEOCPI52
     C45ZFV1 1C2026 03 08.46823311 35 14.752-01 28 03.18   ~38BZ 19.62GVNEOCPI52
     C45ZFV1 1C2026 03 08.46842611 35 15.508-01 27 58.14   ~38BZ 19.37GVNEOCPI52
     C45ZFV1 1C2026 03 09.29826012 23 02.857+01 52 06.71   ~3985 19.24GVNEOCPI52
     C45ZFV1 1C2026 03 09.29873412 23 04.168+01 52 12.97   ~3985 19.05GVNEOCPI52
     C45ZFV1 KB2026 03 09.33857612 24 40.068+01 59 26.02   ~398Z 19.7 GXNEOCP734
     C45ZFV1 KB2026 03 09.34423612 24 55.500+02 00 38.34   ~398Z 19.5 GXNEOCP734

Station data:
(703) Catalina Sky Survey  (N32.417029 W110.732640)  US/Arizona.  Observer E.
   J. Christensen. Measurers T. Beuden, V. F. Carvajal, D. Fay, J. B.
   Fazekas, D. C. Fuls, A. R. Gibbs, A. D. Grauer, H. Gröller, J. K. Hogan,
   R. A. Kowalski, S. M. Larson, G. J. Leonard, D. Rankin, R. L. Seaman, F.
   C. Shelly, K. W. Wierzchoś. 0.68 m Schmidt + 10K CCD.
(734) Farpoint Observatory, Eskridge  (N38.890239 W96.002420)  US/Kansas.
   Observer G. Hug. 0.69-m reflector + CCD.
(I52) Steward Observatory, Mt. Lemmon Station  (N32.442570 W110.788920)
   US/Arizona. Measurers T. Beuden, V. F. Carvajal, D. Fay, J. B. Fazekas, D.
   C. Fuls, A. R. Gibbs, A. D. Grauer, H. Gröller, J. K. Hogan, R. A.
   Kowalski, S. M. Larson, G. J. Leonard, D. Rankin, R. L. Seaman, F. C.
   Shelly, K. W. Wierzchoś. 1.0-m prime focus + CCD.

Orbital elements:  C45ZFV1
   Perihelion 2026 Feb 25.517428 +/- 0.0226 TT = 12:25:05.7 (JD 2461097.017428)
Epoch 2026 Mar  9.0 TT = JDT 2461108.5   Earth MOID: 0.0082   Ma: 0.0722
M   7.104356531 +/- 0.018           (J2000 ecliptic)             AutoNEOCP
n   0.618707745 +/- 0.000557        Peri.  347.398398 +/- 0.024
a   1.363993646 +/- 0.000818        Node   167.999673 +/- 0.00021
e   0.26956088 +/- 0.000424         Incl.    4.337173 +/- 0.006
P   1.593/581.847d         H 29.22  G  0.15   U  7.7
q 0.996314314 +/- 2.59e-5    Q 1.731672977 +/- 0.00162
From 12 observations 2026 Mar. 8-9 (23.4 hr); mean residual 0".60
Residuals in arcseconds: 
260308 703  .51-  .06-    260308 I52  .69+  .74-    260309 I52  .01+  .29-    
260308 703  .42+  1.4-    260308 I52  .20-  .10+    260309 I52  .04+  .24-    
260308 703  .28+  .92+    260308 I52  .91-  .72-    260309 734  .33+  .48+    
260308 703  .18-  .67+    260308 I52  .42+  1.3+    260309 734  .37-  .13-    

Ephemerides (geocentric):
Date (UTC) HH   RA             Dec           delta  r     elong  mag " sig PA
---- --------  ------------   ------------  ------ ------ -----  --- --------
2026 03 09 23  12 53 32.869   +04 08 55.47  .01034 1.0025 156.6 20.4 4.59  85
2026 03 10 00  12 55 18.575   +04 16 09.98  .01040 1.0025 156.2 20.4 4.95  84
2026 03 10 01  12 57 03.016   +04 23 18.33  .01047 1.0026 155.8 20.5 5.31  84
2026 03 10 02  12 58 46.203   +04 30 20.58  .01053 1.0026 155.4 20.5 5.68  83
2026 03 10 03  13 00 28.145   +04 37 16.78  .01060 1.0027 155.0 20.5 6.05  83
2026 03 10 04  13 02 08.855   +04 44 06.99  .01066 1.0027 154.6 20.5 6.43  82
2026 03 10 05  13 03 48.344   +04 50 51.27  .01073 1.0027 154.3 20.6 6.81  82
2026 03 10 06  13 05 26.624   +04 57 29.67  .01080 1.0028 153.9 20.6 7.19  82
2026 03 10 07  13 07 03.706   +05 04 02.27  .01087 1.0028 153.5 20.6 7.57  81
2026 03 10 08  13 08 39.602   +05 10 29.12  .01093 1.0029 153.2 20.6 7.96  81
2026 03 10 09  13 10 14.325   +05 16 50.28  .01100 1.0029 152.8 20.6 8.35  81
2026 03 10 10  13 11 47.887   +05 23 05.84  .01107 1.0029 152.4 20.7 8.74  81
2026 03 10 11  13 13 20.300   +05 29 15.84  .01114 1.0030 152.1 20.7 9.13  80
2026 03 10 12  13 14 51.577   +05 35 20.37  .01121 1.0030 151.8 20.7 9.52  80
2026 03 10 13  13 16 21.732   +05 41 19.48  .01128 1.0031 151.4 20.7 9.92  80
2026 03 10 14  13 17 50.776   +05 47 13.26  .01135 1.0031 151.1 20.8 10.3  80
2026 03 10 15  13 19 18.722   +05 53 01.77  .01143 1.0032 150.7 20.8 10.7  80
2026 03 10 16  13 20 45.583   +05 58 45.07  .01150 1.0032 150.4 20.8 11.1  80
2026 03 10 17  13 22 11.373   +06 04 23.26  .01157 1.0032 150.1 20.8 11.5  80
2026 03 10 18  13 23 36.103   +06 09 56.38  .01165 1.0033 149.8 20.9 11.9  80
2026 03 10 19  13 24 59.788   +06 15 24.52  .01172 1.0033 149.5 20.9 12.3  79
2026 03 10 20  13 26 22.440   +06 20 47.74  .01179 1.0034 149.2 20.9 12.7  79
2026 03 10 21  13 27 44.071   +06 26 06.13  .01187 1.0034 148.9 20.9 13.1  79
2026 03 10 22  13 29 04.695   +06 31 19.74  .01194 1.0035 148.6 20.9 13.5  79
2026 03 10 23  13 30 24.325   +06 36 28.65  .01202 1.0035 148.3 21.0 13.8  79
2026 03 11 00  13 31 42.973   +06 41 32.93  .01209 1.0035 148.0 21.0 14.2  79
2026 03 11 01  13 33 00.651   +06 46 32.66  .01217 1.0036 147.7 21.0 14.6  79
2026 03 11 02  13 34 17.374   +06 51 27.89  .01225 1.0036 147.4 21.0 15.0  79
2026 03 11 03  13 35 33.153   +06 56 18.71  .01232 1.0037 147.1 21.1 15.4  79
2026 03 11 04  13 36 48.001   +07 01 05.18  .01240 1.0037 146.8 21.1 15.8  79
2026 03 11 05  13 38 01.930   +07 05 47.36  .01248 1.0038 146.6 21.1 16.1  79
2026 03 11 06  13 39 14.952   +07 10 25.34  .01256 1.0038 146.3 21.1 16.5  79
2026 03 11 07  13 40 27.081   +07 14 59.16  .01264 1.0039 146.0 21.1 16.9  79
2026 03 11 08  13 41 38.327   +07 19 28.91  .01272 1.0039 145.8 21.2 17.3  79
2026 03 11 09  13 42 48.704   +07 23 54.65  .01280 1.0039 145.5 21.2 17.6  79
2026 03 11 10  13 43 58.222   +07 28 16.43  .01288 1.0040 145.2 21.2 18.0  79
2026 03 11 11  13 45 06.895   +07 32 34.34  .01296 1.0040 145.0 21.2 18.4  79
2026 03 11 12  13 46 14.733   +07 36 48.42  .01304 1.0041 144.7 21.2 18.7  79
2026 03 11 13  13 47 21.748   +07 40 58.75  .01312 1.0041 144.5 21.3 19.1  79
2026 03 11 14  13 48 27.951   +07 45 05.39  .01320 1.0042 144.2 21.3 19.5  79
2026 03 11 15  13 49 33.355   +07 49 08.40  .01328 1.0042 144.0 21.3 19.8  79
2026 03 11 16  13 50 37.970   +07 53 07.83  .01336 1.0043 143.8 21.3 20.2  79
2026 03 11 17  13 51 41.807   +07 57 03.76  .01344 1.0043 143.5 21.3 20.5  79
2026 03 11 18  13 52 44.878   +08 00 56.23  .01352 1.0043 143.3 21.4 20.9  79
2026 03 11 19  13 53 47.193   +08 04 45.31  .01361 1.0044 143.1 21.4 21.2  79
2026 03 11 20  13 54 48.762   +08 08 31.05  .01369 1.0044 142.9 21.4 21.6  79
2026 03 11 21  13 55 49.597   +08 12 13.52  .01377 1.0045 142.6 21.4 21.9  79
2026 03 11 22  13 56 49.708   +08 15 52.76  .01386 1.0045 142.4 21.4 22.2  79